Regional Weather Roundup
Issued by NWS Jackson, KY

Home | Current Version | Previous Version | Graphics & Text | Print | Product List | Glossary On
Versions: 1 2 3 4 5 6 7 8 9 10 11 12 13 14 15 16 17 18 19 20 21 22 23 24 25 26 27 28
000
ASUS43 KJKL 290810
RWRJKL

EAST KENTUCKY HOURLY WEATHER ROUNDUP
NATIONAL WEATHER SERVICE JACKSON KY
400 AM EDT THU SEP 29 2016

NOTE: "FAIR" INDICATES FEW OR NO CLOUDS BELOW 12,000 FEET WITH
NO SIGNIFICANT WEATHER AND/OR OBSTRUCTIONS TO VISIBILITY.

* THESE REPORTS ARE NOT UNDER NWS QUALITY CONTROL AND MAY NOT
  REPORT WEATHER SUCH AS PRECIPITATION AND FOG.

KYZ079-080-083-085-087-088-110-112-115-119-120-290900
...EASTERN KENTUCKY...

CITY           SKY/WX    TMP DP  RH WIND       PRES   REMARKS
JACKSON        CLOUDY    57  55  93 CALM      29.97S
LONDON         CLEAR     53  50  89 W5        29.99S
SOMERSET*      MOCLDY    52  52 100 CALM      30.02R
MONTICELLO*    FOG       55  54  94 NE5       30.02S VSB 3/4
WILLIAMSBURG*  MOSUNNY   52  52 100 CALM      30.00S
MIDDLESBORO*   CLOUDY    58  58  99 CALM      29.98F
HARLAN APT*    CLOUDY    57  55  94 CALM      29.97F
PIKE CO APT*   LGT RAIN  56  56  97 SE6       29.97F
MOREHEAD APT*  FOG       52  50  93 CALM      30.00S VSB 3/4
ASHLAND*       CLOUDY    59  55  88 CALM      29.96S
$$

KYZ035-036-041-042-044-050-067-078-099-290900
...CENTRAL KENTUCKY...

CITY           SKY/WX    TMP DP  RH WIND       PRES   REMARKS
MT STERLING*   CLOUDY    52  52 100 CALM      30.00S
FLEMING/MASON* CLOUDY    51  51  99 CALM      30.00R FOG
DANVILLE*      CLOUDY    50  50 100 CALM      30.01R
LEXINGTON      PTCLDY    48  47  96 S5        29.99R FOG
FRANKFORT      CLEAR     52  48  86 CALM      29.97S
LOUISVILLE     MOCLDY    54  49  83 W6        29.99S
LEBANON*         N/A     54  50  87 W3        30.00R
GLASGOW*       CLOUDY    50  50 100 CALM      30.01S
BOWLING GREEN  CLEAR     51  46  83 W3        30.03S
$$

KYZ091>093-OHZ055-061-077-WVZ005-015-034-035-042-290900
...SOUTHERN OHIO/WEST VIRGINIA...

CITY           SKY/WX    TMP DP  RH WIND       PRES   REMARKS
COVINGTON      CLOUDY    52  52 100 CALM      29.97R FOG
COLUMBUS       CLOUDY    57  57 100 SE6       29.97R
DAYTON         FOG       51  51 100 NW5       29.98R VSB 1/4
WILMINGTON     FOG       52  52 100 CALM      29.97S VSB 1/2
HUNTINGTON     LGT RAIN  58  56  93 S3        29.97R
CHARLESTON     LGT RAIN  58  53  84 E6        29.97S
PINEVILLE*     CLOUDY    55  50  85 MISG      30.03F
BECKLEY        CLEAR     53  48  83 E6        30.01F
BLUEFIELD      CLEAR     50  47  89 E3        30.02F
LOGAN CO APT*  CLOUDY    57  54  88 CALM      29.98R
$$

VAZ002-007-008-TNZ017-027-036-066-071-290900
...SOUTHWEST VIRGINIA/EAST TENNESSEE...

CITY           SKY/WX    TMP DP  RH WIND       PRES   REMARKS
WISE*          MOCLDY    52  52 100 CALM      30.01F
JONESVILLE*    LGT RAIN  57  55  94 CALM      30.00S
ABINGDON*      MOCLDY    59  51  75 E8        29.97F
BRISTOL        MOCLDY    57  51  80 N7        29.97S
MORRISTOWN*    MOSUNNY   59  54  82 CALM      29.95F
SEVIERVILLE*   SUNNY     55  52  88 CALM      29.95F
KNOXVILLE      CLOUDY    63  55  75 N5        29.95F
OAK RIDGE      CLOUDY    61  53  75 CALM      29.98F
CROSSVILLE     CLOUDY    53  50  89 NW5       30.01S
NASHVILLE      CLEAR     53  45  74 CALM      30.04S
$$

...KEY TO REMARKS...
VSB - VISIBILITY IN MILES
WCI - WIND CHILL INDEX
HX  - HEAT INDEX

$$




USA.gov is the U.S. government's official web portal to all federal, state and local government web resources and services.